Regional Weather Roundup
Issued by NWS Jackson, KY

Home | Current Version | Previous Version | Graphics & Text | Print | Product List | Glossary On
Versions: 1 2 3 4 5 6 7 8 9 10 11 12 13 14 15 16 17 18 19 20 21 22 23 24 25 26 27
000
ASUS43 KJKL 251510
RWRJKL

EAST KENTUCKY HOURLY WEATHER ROUNDUP
NATIONAL WEATHER SERVICE JACKSON KY
1000 AM EST SAT FEB 25 2017

NOTE: "FAIR" INDICATES FEW OR NO CLOUDS BELOW 12,000 FEET WITH
NO SIGNIFICANT WEATHER AND/OR OBSTRUCTIONS TO VISIBILITY.

* THESE REPORTS ARE NOT UNDER NWS QUALITY CONTROL AND MAY NOT
  REPORT WEATHER SUCH AS PRECIPITATION AND FOG.

KYZ079-080-083-085-087-088-110-112-115-119-120-251600
...EASTERN KENTUCKY...

CITY           SKY/WX    TMP DP  RH WIND       PRES   REMARKS
JACKSON        CLOUDY    43  35  73 SW10G20   29.79R
LONDON         CLOUDY    43  32  65 W16       29.84R
SOMERSET*      CLOUDY    41  30  65 W14       29.89R
MONTICELLO*    CLOUDY    42  32  67 W18       29.90R
WILLIAMSBURG*  PTSUNNY   45  37  76 W8        29.85R
MIDDLESBORO*   PTSUNNY   49  40  70 W12G22    29.82R
HARLAN APT*    PTSUNNY   46  41  81 SW8       29.79S
PIKE CO APT*   CLOUDY    49  44  85 SW7G16    29.75S
BIG SANDY APT* CLOUDY    47  41  82 W12G22    29.77R
MOREHEAD APT*  PTSUNNY   46  32  57 SW8G20    29.80R
ASHLAND*       SUNNY     48  36  61 W12       29.74R
$$

KYZ035-036-041-042-044-050-067-078-099-251600
...CENTRAL KENTUCKY...

CITY           SKY/WX    TMP DP  RH WIND       PRES   REMARKS
FLEMING/MASON* CLOUDY    39  31  71 W17G26    29.81R WCI  30
DANVILLE*      CLOUDY    37  28  70 W15G23    29.89R WCI  28
LEXINGTON      CLOUDY    37  24  59 W24G33    29.86R WCI  26
FRANKFORT      PTSUNNY   36  21  54 W13G26    29.86R WCI  27
LOUISVILLE     FLURRIES  35  20  54 W20       29.92R WCI  24
LEBANON*       CLOUDY    36  25  64 W14G20    29.91R WCI  27
GLASGOW*       MOSUNNY   38  22  54 W17G25    29.96R WCI  28
BOWLING GREEN  MOSUNNY   40  22  48 NW14G21   29.98R WCI  32
$$

KYZ091>093-OHZ055-061-077-WVZ005-015-034-035-042-251600
...SOUTHERN OHIO/WEST VIRGINIA...

CITY           SKY/WX    TMP DP  RH WIND       PRES   REMARKS
COVINGTON      FLURRIES  34  25  69 W13G22    29.80R WCI  25
COLUMBUS       CLOUDY    43  32  65 W18       29.68R
DAYTON         CLOUDY    35  29  78 W24G30    29.74R WCI  23
WILMINGTON     CLOUDY    36  24  62 W28G36    29.74R WCI  23
HUNTINGTON     PTSUNNY   47  36  65 W10G22    29.74R
CHARLESTON     CLOUDY    49  44  83 SW9       29.71R
PINEVILLE*     CLOUDY    47  43  85 MISG      29.78R
BECKLEY        LGT RAIN  46  41  82 SW13      29.71R
BLUEFIELD      LGT RAIN  42  39  89 W12       29.73R
LOGAN CO APT*  CLOUDY    48  45  87 W9        29.72R
$$

VAZ002-007-008-TNZ017-027-036-066-071-251600
...SOUTHWEST VIRGINIA/EAST TENNESSEE...

CITY           SKY/WX    TMP DP  RH WIND       PRES   REMARKS
WISE*          PTSUNNY   46  36  66 W15G21    29.76S
JONESVILLE*      N/A     52  41  66 SW12      29.80F
ABINGDON*      CLOUDY    50  47  89 W10       29.76R
BRISTOL        PTSUNNY   52  46  80 SW9       29.78R
MORRISTOWN*    MOSUNNY   54  45  71 W9        29.79S
SEVIERVILLE*   MOSUNNY   55  41  58 W13       29.80F
KNOXVILLE      PTSUNNY   55  29  36 W18G28    29.82R
LAFOLLETTE*    PTSUNNY   48  37  66 VRB5G15   29.86R
OAK RIDGE      MOSUNNY   54  35  48 W8G17     29.84R
CROSSVILLE     MOSUNNY   41  30  65 W12G23    29.87R
NASHVILLE      PTSUNNY   42  25  50 W14G22    29.99R
$$

...KEY TO REMARKS...
VSB - VISIBILITY IN MILES
WCI - WIND CHILL INDEX
HX  - HEAT INDEX

$$




USA.gov is the U.S. government's official web portal to all federal, state and local government web resources and services.